Weather History for KBCE - March, 2014

Change the Weather History Date:

Monday, March 31, 2014

  Actual Average Record
Temperature  
Mean Temperature 28 °F -  
Max Temperature 45 °F 46 °F 67 °F (1966)
Min Temperature 12 °F 20 °F 3 °F (1980)
Degree Days  
Heating Degree Days 37    
Moisture  
Dew Point 17 °F    
Average Humidity 62    
Maximum Humidity 96    
Minimum Humidity 33    
Precipitation  
Precipitation 0.00 in - - ()
Sea Level Pressure  
Sea Level Pressure 29.91 in    
Wind  
Wind Speed 8 mph (SSW)    
Max Wind Speed 21 mph    
Max Gust Speed 43 mph    
Visibility 10 miles    
Events      
Averages and records for this station are not official NWS values.
T = Trace of Precipitation, MM = Missing Value Source: NWS Daily Summary

Daily Weather History Graph

Daily Weather History Graph

Search for Another Location

Airport or City:

Trip Planner

Search our weather history database for the weather conditions in past years. The results will help you decide how hot, cold, wet, or windy it might be!

Date:

Astronomy

Mar. 31, 2014 Rise Set
Actual Time 7:15 AM MDT 7:50 PM MDT
Civil Twilight 6:48 AM MDT 8:17 PM MDT
Nautical Twilight 6:17 AM MDT 8:48 PM MDT
Astronomical Twilight 5:46 AM MDT 9:20 PM MDT
Moon 7:42 AM MDT (3/31) 9:11 PM MDT (3/31)
Length of Visible Light 13h 28m
Length of Day
12h 35m
New Moon, 1% of the Moon is Illuminated
Mar 31
New Moon
Apr 7
First Quarter
Apr 15
Full
Apr 22
Last Quarter
Apr 29
New

Hourly Weather History & Observations

Time (MDT) Temp. Windchill Dew Point Humidity Pressure Visibility Wind Dir Wind Speed Gust Speed Precip Events Conditions
12:53 AM 21.0 °F 11.4 °F 18.0 °F 88% 30.00 in 10.0 mi NNW 8.1 mph - N/A   Clear
1:53 AM 21.9 °F 12.5 °F 21.0 °F 96% 29.99 in 10.0 mi NNW 8.1 mph - N/A   Clear
2:53 AM 19.0 °F 8.2 °F 17.1 °F 92% 29.99 in 10.0 mi NW 9.2 mph - N/A   Mostly Cloudy
3:53 AM 16.0 °F - 14.0 °F 92% 30.01 in 10.0 mi Calm Calm - N/A   Mostly Cloudy
4:05 AM 17.1 °F - 14.0 °F 88% 30.04 in 10.0 mi Calm Calm - N/A   Scattered Clouds
4:53 AM 16.0 °F - 12.9 °F 88% 29.99 in 10.0 mi Calm Calm - N/A   Clear
5:53 AM 15.1 °F 9.4 °F 12.9 °F 91% 30.03 in 10.0 mi West 3.5 mph - N/A   Clear
6:53 AM 12.0 °F - 10.0 °F 92% 30.02 in 10.0 mi Calm Calm - N/A   Clear
7:53 AM 16.0 °F 8.8 °F 12.9 °F 88% 30.03 in 10.0 mi West 4.6 mph - N/A   Clear
8:53 AM 21.9 °F 17.2 °F 18.0 °F 85% 30.01 in 10.0 mi West 3.5 mph - N/A   Clear
9:53 AM 30.9 °F - 21.0 °F 67% 29.99 in 10.0 mi Calm Calm - N/A   Clear
10:53 AM 35.1 °F 25.9 °F 19.9 °F 54% 29.97 in 10.0 mi SSE 13.8 mph - N/A   Clear
11:53 AM 37.0 °F 29.3 °F 21.0 °F 52% 29.94 in 10.0 mi SSE 11.5 mph - N/A   Clear
12:53 PM 41.0 °F 33.1 °F 21.9 °F 47% 29.92 in 10.0 mi SSE 15.0 mph 24.2 mph N/A   Clear
1:53 PM 41.0 °F 32.5 °F 19.9 °F 43% 29.89 in 10.0 mi SE 17.3 mph 23.0 mph N/A   Scattered Clouds
2:53 PM 41.0 °F 35.8 °F 19.9 °F 43% 29.88 in 10.0 mi SSE 8.1 mph - N/A   Overcast
3:53 PM 43.0 °F 37.2 °F 21.9 °F 43% 29.85 in 10.0 mi SSE 10.4 mph - N/A   Overcast
4:53 PM 43.0 °F 36.8 °F 21.0 °F 42% 29.81 in 10.0 mi South 11.5 mph - N/A   Overcast
5:53 PM 44.1 °F 35.9 °F 19.0 °F 37% 29.79 in 10.0 mi South 19.6 mph 32.2 mph N/A   Partly Cloudy
6:53 PM 43.0 °F 35.4 °F 16.0 °F 34% 29.80 in 10.0 mi SSW 16.1 mph 28.8 mph N/A   Scattered Clouds
7:53 PM 42.1 °F 34.5 °F 15.1 °F 34% 29.78 in 10.0 mi SSW 15.0 mph - N/A   Overcast
8:53 PM 37.9 °F 31.5 °F 17.1 °F 43% 29.78 in 10.0 mi SSW 9.2 mph - N/A   Scattered Clouds
9:53 PM 39.9 °F 31.4 °F 12.9 °F 33% 29.73 in 10.0 mi SSW 16.1 mph 21.9 mph N/A   Mostly Cloudy
10:53 PM 39.0 °F 29.9 °F 14.0 °F 36% 29.70 in 10.0 mi SSW 17.3 mph - N/A   Mostly Cloudy
11:53 PM 39.0 °F 29.0 °F 14.0 °F 36% 29.69 in 10.0 mi SW 20.7 mph 42.6 mph N/A   Mostly Cloudy